Weather History for Jackson, MS

Change the Weather History Date:

Tuesday, October 18, 2011

  Actual Average Record
Temperature  
Mean Temperature 63 °F 64 °F  
Max Temperature 78 °F 77 °F 93 °F (1926)
Min Temperature 47 °F 52 °F 30 °F (1948)
Degree Days  
Heating Degree Days 2 3  
Month to date heating degree days 19 36  
Since 1 July heating degree days 19 43  
Cooling Degree Days 0 3  
Month to date cooling degree days 53 77  
Year to date cooling degree days 2640 2203  
Growing Degree Days 14 (Base 50)    
Moisture  
Dew Point 55 °F    
Average Humidity 75    
Maximum Humidity 93    
Minimum Humidity 56    
Precipitation  
Precipitation T in 0.13 in 1.38 in (1941)
Month to date precipitation 0.75 2.22  
Year to date precipitation 39.09 42.53  
Sea Level Pressure  
Sea Level Pressure 29.77 in    
Wind  
Wind Speed 9 mph (WNW)    
Max Wind Speed 25 mph    
Max Gust Speed 33 mph    
Visibility 8 miles    
Events Rain    
T = Trace of Precipitation, MM = Missing Value Source: NWS Daily Summary

Daily Weather History Graph

Daily Weather History Graph

Search for Another Location

Airport:

Trip Planner

Search our weather history database for the weather conditions in past years. The results will help you decide how hot, cold, wet, or windy it might be!

Date:

Astronomy

Oct. 18, 2011 Rise Set
Actual Time 7:06 AM CDT 6:24 PM CDT
Civil Twilight 6:41 AM CDT 6:49 PM CDT
Nautical Twilight 6:12 AM CDT 7:17 PM CDT
Astronomical Twilight 5:44 AM CDT 7:46 PM CDT
Moon 11:16 PM CDT (10/18) 12:44 PM CDT (10/18)
Length of Visible Light 12h 07m
Length of Day
11h 18m
Waning Gibbous, 64% of the Moon is Illuminated
Oct 18
Waning Gibbous
Oct 19
Last Quarter
Oct 26
New
Nov 2
First Quarter
Nov 10
Full

Hourly Weather History & Observations

Time (CDT) Temp. Dew Point Humidity Pressure Visibility Wind Dir Wind Speed Gust Speed Precip Events Conditions
12:54 AM 66.2 °F 57.2 °F 73% 29.78 in 10.0 mi SSE 5.8 mph - N/A   Clear
1:54 AM 62.6 °F 57.2 °F 82% 29.76 in 10.0 mi South 3.5 mph - N/A   Clear
2:54 AM 60.1 °F 55.9 °F 86% 29.75 in 10.0 mi Calm Calm - N/A   Clear
3:52 AM 57.2 °F 55.4 °F 94% 29.75 in 10.0 mi Calm Calm - N/A   Partly Cloudy
3:54 AM 57.9 °F 55.9 °F 93% 29.74 in 10.0 mi Calm Calm - N/A   Partly Cloudy
4:22 AM 57.2 °F 55.4 °F 94% 29.76 in 8.0 mi Calm Calm - N/A   Mostly Cloudy
4:46 AM 60.8 °F 60.8 °F 100% 29.77 in 7.0 mi Calm Calm - N/A   Overcast
4:52 AM 62.6 °F 60.8 °F 94% 29.78 in 1.8 mi Calm Calm - N/A   Overcast
4:54 AM 62.1 °F 61.0 °F 96% 29.77 in 1.8 mi Variable 3.5 mph - N/A   Overcast
5:04 AM 64.4 °F 62.6 °F 94% 29.77 in 3.0 mi Variable 4.6 mph - N/A   Overcast
5:32 AM 64.4 °F 62.6 °F 94% 29.78 in 7.0 mi WSW 4.6 mph - N/A   Mostly Cloudy
5:49 AM 64.4 °F 62.6 °F 94% 29.77 in 7.0 mi Variable 3.5 mph - N/A   Scattered Clouds
5:54 AM 64.4 °F 62.6 °F 94% 29.77 in 7.0 mi Calm Calm - N/A   Partly Cloudy
6:54 AM 62.1 °F 61.0 °F 96% 29.75 in 7.0 mi SSE 6.9 mph - N/A   Partly Cloudy
7:10 AM 62.6 °F 60.8 °F 94% 29.75 in 0.2 mi SSE 8.1 mph - N/A   Scattered Clouds
7:22 AM 64.4 °F 62.6 °F 94% 29.75 in 4.0 mi South 4.6 mph - N/A   Scattered Clouds
7:54 AM 66.0 °F 64.0 °F 93% 29.77 in 5.0 mi Variable 5.8 mph - N/A   Scattered Clouds
8:54 AM 68.0 °F 64.9 °F 90% 29.75 in 7.0 mi Variable 3.5 mph - N/A   Mostly Cloudy
9:54 AM 70.0 °F 64.9 °F 84% 29.74 in 9.0 mi South 5.8 mph - N/A   Mostly Cloudy
10:54 AM 73.9 °F 63.0 °F 68% 29.69 in 10.0 mi Variable 3.5 mph - N/A   Scattered Clouds
11:54 AM 77.0 °F 61.0 °F 58% 29.68 in 10.0 mi West 12.7 mph - N/A   Mostly Cloudy
12:54 PM 75.9 °F 60.1 °F 58% 29.67 in 10.0 mi WSW 10.4 mph 17.3 mph N/A   Mostly Cloudy
1:54 PM 75.0 °F 60.1 °F 60% 29.66 in 10.0 mi West 11.5 mph 23.0 mph N/A   Mostly Cloudy
2:54 PM 73.0 °F 60.1 °F 64% 29.65 in 10.0 mi West 12.7 mph - N/A   Overcast
3:18 PM 66.2 °F 57.2 °F 73% 29.68 in 10.0 mi NW 19.6 mph 33.4 mph N/A   Overcast
3:38 PM 60.8 °F 53.6 °F 77% 29.71 in 10.0 mi NW 15.0 mph 26.5 mph N/A   Overcast
3:54 PM 57.0 °F 52.0 °F 83% 29.72 in 10.0 mi WNW 15.0 mph 25.3 mph N/A   Overcast
4:54 PM 53.1 °F 48.0 °F 83% 29.75 in 10.0 mi NNW 18.4 mph 25.3 mph 0.00 in   Overcast
5:54 PM 53.1 °F 46.9 °F 80% 29.78 in 10.0 mi NW 11.5 mph 23.0 mph N/A   Overcast
6:26 PM 53.6 °F 46.4 °F 77% 29.80 in 10.0 mi NW 17.3 mph 23.0 mph N/A   Overcast
6:54 PM 52.0 °F 46.0 °F 80% 29.81 in 10.0 mi NW 15.0 mph 27.6 mph 0.00 in   Overcast
7:32 PM 51.8 °F 44.6 °F 76% 29.83 in 10.0 mi NNW 17.3 mph 25.3 mph N/A   Overcast
7:54 PM 51.1 °F 46.0 °F 83% 29.83 in 10.0 mi NW 12.7 mph 25.3 mph 0.00 in Rain Light Rain
8:37 PM 51.8 °F 44.6 °F 76% 29.85 in 10.0 mi NNW 18.4 mph 26.5 mph 0.00 in   Overcast
8:54 PM 51.1 °F 44.1 °F 77% 29.85 in 10.0 mi NW 18.4 mph 26.5 mph 0.00 in   Overcast
9:29 PM 51.8 °F 44.6 °F 76% 29.86 in 10.0 mi NNW 10.4 mph 24.2 mph N/A   Overcast
9:41 PM 51.8 °F 44.6 °F 76% 29.86 in 10.0 mi NW 18.4 mph 27.6 mph N/A   Overcast
9:54 PM 51.1 °F 43.0 °F 74% 29.85 in 10.0 mi NNW 15.0 mph 24.2 mph N/A   Overcast
10:31 PM 51.8 °F 42.8 °F 71% 29.86 in 10.0 mi NW 15.0 mph 25.3 mph N/A   Overcast
10:54 PM 50.0 °F 41.0 °F 71% 29.85 in 10.0 mi NNW 13.8 mph 23.0 mph N/A   Scattered Clouds
11:54 PM 48.9 °F 41.0 °F 74% 29.84 in 10.0 mi NW 8.1 mph - N/A   Clear